Weather History for KGGE - August, 2012

Change the Weather History Date:

Wednesday, August 22, 2012

  Actual Average Record
Temperature  
Mean Temperature 78 °F -  
Max Temperature 86 °F 88 °F 95 °F (2014)
Min Temperature 69 °F 69 °F 69 °F (2012)
Cooling Degree Days 12    
Growing Degree Days 28 (Base 50)    
Moisture  
Dew Point 71 °F    
Average Humidity 93    
Maximum Humidity 100    
Minimum Humidity 66    
Precipitation  
Precipitation 0.35 in - - ()
Sea Level Pressure  
Sea Level Pressure 30.05 in    
Wind  
Wind Speed 1 mph (South)    
Max Wind Speed 9 mph    
Max Gust Speed -    
Visibility 9 miles    
Events Rain , Thunderstorm    
Averages and records for this station are not official NWS values.
T = Trace of Precipitation, MM = Missing Value Source: NWS Daily Summary

Daily Weather History Graph

Daily Weather History Graph

Search for Another Location

Airport or City:

Trip Planner

Search our weather history database for the weather conditions in past years. The results will help you decide how hot, cold, wet, or windy it might be!

Date:

Astronomy

Aug. 22, 2012 Rise Set
Actual Time 6:45 AM EDT 7:54 PM EDT
Civil Twilight 6:19 AM EDT 8:20 PM EDT
Nautical Twilight 5:48 AM EDT 8:50 PM EDT
Astronomical Twilight 5:16 AM EDT 9:22 PM EDT
Moon 12:00 PM EDT (8/22) 10:57 PM EDT (8/22)
Length of Visible Light 14h 00m
Length of Day
13h 09m
Waxing Crescent, 29% of the Moon is Illuminated
Aug 22
Waxing Crescent
Aug 24
First Quarter
Aug 31
Full
Sep 8
Last Quarter
Sep 15
New

Hourly Weather History & Observations

Time (EDT) Temp. Heat Index Dew Point Humidity Pressure Visibility Wind Dir Wind Speed Gust Speed Precip Events Conditions
12:55 AM 71.6 °F - 71.6 °F 100% 30.04 in 10.0 mi Calm Calm - N/A Rain Light Rain
1:15 AM 71.6 °F - 71.6 °F 100% 30.04 in 5.0 mi SW 5.8 mph - 0.03 in Rain Rain
1:35 AM 71.6 °F - 71.6 °F 100% 30.04 in 10.0 mi WSW 3.5 mph - 0.04 in Rain Light Rain
1:55 AM 71.6 °F - 71.6 °F 100% 30.03 in 10.0 mi Calm Calm - 0.04 in   Mostly Cloudy
2:15 AM 71.6 °F - 71.6 °F 100% 30.02 in 10.0 mi Calm Calm - N/A   Scattered Clouds
2:35 AM 71.6 °F - 71.6 °F 100% 30.02 in 10.0 mi Calm Calm - N/A   Clear
2:55 AM 69.8 °F - 69.8 °F 100% 30.01 in 7.0 mi Calm Calm - N/A   Clear
3:15 AM 71.6 °F - 71.6 °F 100% 30.01 in 10.0 mi Calm Calm - N/A   Clear
3:35 AM 69.8 °F - 69.8 °F 100% 30.02 in 10.0 mi Calm Calm - N/A   Clear
3:55 AM 69.8 °F - 69.8 °F 100% 30.03 in 10.0 mi Calm Calm - N/A   Mostly Cloudy
4:15 AM 69.8 °F - 69.8 °F 100% 30.02 in 10.0 mi Calm Calm - N/A   Scattered Clouds
4:35 AM 69.8 °F - 69.8 °F 100% 30.02 in 5.0 mi Calm Calm - N/A   Scattered Clouds
4:55 AM 69.8 °F - 69.8 °F 100% 30.03 in 3.0 mi Calm Calm - N/A   Scattered Clouds
5:15 AM 69.8 °F - 69.8 °F 100% 30.03 in 0.8 mi Calm Calm - N/A   Overcast
5:35 AM 69.8 °F - 69.8 °F 100% 30.03 in 4.0 mi Calm Calm - N/A   Mostly Cloudy
5:55 AM 71.6 °F - 71.6 °F 100% 30.04 in 3.0 mi Calm Calm - N/A   Light Drizzle
6:15 AM 71.6 °F - 71.6 °F 100% 30.05 in 5.0 mi Calm Calm - N/A   Scattered Clouds
6:35 AM 71.6 °F - 71.6 °F 100% 30.05 in 5.0 mi Calm Calm - 0.01 in Rain Rain
6:55 AM 71.6 °F - 71.6 °F 100% 30.05 in 5.0 mi Calm Calm - 0.02 in Rain Light Rain
8:15 AM 73.4 °F - 73.4 °F 100% 30.06 in 10.0 mi Calm Calm - N/A   Clear
8:35 AM 73.4 °F - 73.4 °F 100% 30.07 in 10.0 mi Calm Calm - N/A   Clear
8:55 AM 75.2 °F - 73.4 °F 94% 30.07 in 10.0 mi Calm Calm - N/A   Clear
9:15 AM 77.0 °F - 75.2 °F 94% 30.07 in 10.0 mi Calm Calm - N/A   Clear
9:35 AM 78.8 °F - 75.2 °F 89% 30.07 in 10.0 mi Calm Calm - N/A   Clear
9:55 AM 77.0 °F - 73.4 °F 89% 30.07 in 10.0 mi Calm Calm - N/A   Mostly Cloudy
10:15 AM 77.0 °F - 73.4 °F 89% 30.08 in 10.0 mi Calm Calm - N/A   Overcast
10:35 AM 78.8 °F - 73.4 °F 83% 30.08 in 10.0 mi Calm Calm - N/A   Mostly Cloudy
10:55 AM 78.8 °F - 73.4 °F 83% 30.08 in 10.0 mi WSW 4.6 mph - N/A   Scattered Clouds
11:15 AM 78.8 °F - 73.4 °F 83% 30.08 in 10.0 mi Calm Calm - N/A   Scattered Clouds
11:35 AM 80.6 °F 85.4 °F 73.4 °F 79% 30.08 in 10.0 mi Calm Calm - N/A   Scattered Clouds
11:55 AM 82.4 °F 87.2 °F 71.6 °F 70% 30.08 in 10.0 mi Calm Calm - N/A   Mostly Cloudy
12:15 PM 82.4 °F 87.2 °F 71.6 °F 70% 30.07 in 10.0 mi Calm Calm - N/A   Mostly Cloudy
12:35 PM 82.4 °F 87.2 °F 71.6 °F 70% 30.06 in 10.0 mi Calm Calm - N/A   Mostly Cloudy
12:55 PM 80.6 °F 84.6 °F 71.6 °F 74% 30.06 in 10.0 mi Calm Calm - N/A   Mostly Cloudy
1:15 PM 82.4 °F 87.2 °F 71.6 °F 70% 30.06 in 10.0 mi ESE 8.1 mph - N/A   Mostly Cloudy
1:35 PM 82.4 °F 88.2 °F 73.4 °F 74% 30.06 in 10.0 mi East 8.1 mph - N/A   Scattered Clouds
1:55 PM 84.2 °F 90.9 °F 73.4 °F 70% 30.05 in 10.0 mi East 8.1 mph - N/A   Scattered Clouds
2:15 PM 82.4 °F 88.2 °F 73.4 °F 74% 30.05 in 10.0 mi ESE 9.2 mph - N/A   Scattered Clouds
2:55 PM 86.0 °F 93.4 °F 73.4 °F 66% 30.03 in 10.0 mi South 4.6 mph - N/A   Mostly Cloudy
5:35 PM 69.8 °F - 69.8 °F 100% 30.04 in 2.5 mi SE 6.9 mph - 0.20 in Rain , Thunderstorm Heavy Thunderstorms and Rain
7:55 PM 69.8 °F - 69.8 °F 100% 30.06 in 10.0 mi Calm Calm - 0.05 in Rain Light Rain
8:15 PM 69.8 °F - 69.8 °F 100% 30.06 in 10.0 mi West 6.9 mph - 0.01 in Rain Rain
8:35 PM 69.8 °F - 69.8 °F 100% 30.06 in 10.0 mi Calm Calm - 0.03 in Rain Light Rain
8:55 PM 69.8 °F - 69.8 °F 100% 30.06 in 10.0 mi Calm Calm - 0.04 in   Scattered Clouds
9:15 PM 69.8 °F - 69.8 °F 100% 30.07 in 10.0 mi SW 4.6 mph - N/A Rain Light Rain
9:35 PM 69.8 °F - 69.8 °F 100% 30.07 in 10.0 mi Calm Calm - N/A   Light Drizzle
9:55 PM 69.8 °F - 69.8 °F 100% 30.07 in 10.0 mi Calm Calm - N/A   Scattered Clouds
10:15 PM 69.8 °F - 69.8 °F 100% 30.07 in 10.0 mi Calm Calm - N/A   Clear
10:35 PM 69.8 °F - 69.8 °F 100% 30.07 in 10.0 mi Calm Calm - N/A   Clear
10:55 PM 69.8 °F - 69.8 °F 100% 30.07 in 10.0 mi Calm Calm - N/A   Scattered Clouds
11:15 PM 69.8 °F - 69.8 °F 100% 30.07 in 7.0 mi Calm Calm - N/A   Mostly Cloudy
11:35 PM 69.8 °F - 69.8 °F 100% 30.07 in 10.0 mi Calm Calm - N/A   Scattered Clouds